Regional Weather Roundup
Issued by NWS

Home | Current Version | Previous Version | Text Only | Print | Product List | Glossary Off
Versions: 1 2 3 4 5 6 7 8 9 10 11 12 13 14 15 16 17 18 19 20 21 22 23 24 25 26 27 28 29 30 31 32 33 34 35 36 37 38 39 40 41 42 43 44 45 46 47 48 49 50

000
ASUS43 KDTX 241701
RWRMI
MICHIGAN HOURLY REGIONAL WEATHER ROUNDUP
NATIONAL WEATHER SERVICE DETROIT/PONTIAC MI
100 PM EDT FRI MAR 24 2017

NOTE: "FAIR" INDICATES FEW OR NO CLOUDS BELOW 12,000 FEET WITH NO
SIGNIFICANT WEATHER AND/OR OBSTRUCTION TO VISIBILITY.

MIZ047>049-052>055-059>063-066>070-074>076-081>083-241800-
SOUTHEAST LOWER MICHIGAN

CITY           SKY/WX    TMP DP  RH WIND       PRES   REMARKS
ADRIAN         CLOUDY    64  52  64 SW17G29   30.00F
ALMA           MOSUNNY   56  47  71 SW15G21   29.94S
ANN ARBOR      MOSUNNY   65  51  60 SW18G28   29.98F
BAD AXE        SUNNY     59  44  57 W17G24    29.92F
CARO           SUNNY     62  46  55 SW16G26   29.92F
DETROIT CITY   MOSUNNY   64  49  57 W15G24    29.98F
DETROIT        CLOUDY    65  50  58 SW22G29   30.00F
FLINT          CLOUDY    62  48  60 SW10      29.95F
GROSSE ILE     MOSUNNY   64  50  62 W15       29.99F
HILLSDALE      CLOUDY    66  52  59 SW15G24   29.98F
HOWELL         CLOUDY    65  48  54 SW10      29.95F

CITY           SKY/WX    TMP DP  RH WIND       PRES   REMARKS
JACKSON        CLOUDY    66  50  56 SW24G30   29.97F
LAMBERTVILLE   CLOUDY    68  51  55 SW14G25   30.00F
LANSING        MOSUNNY   67  48  50 SW16      29.95F
LAPEER         FAIR      63  47  56 SW17G25   29.95F
MASON          PTSUNNY   65  51  60 SW10G16   29.96S
MONROE         CLOUDY    64  54  68 MISG      30.00F
PONTIAC        CLOUDY    63  47  55 SW14      29.96F
PORT HOPE        N/A     37  35  92 E6        29.92F WCI  32
PORT HURON     CLOUDY    59  45  58 SW12G20   29.96F
TRI CITIES     CLOUDY    59  46  62 SW18      29.92F
MIDLAND        PTSUNNY   59  44  55 SW8G21    29.90F
TROY           PTSUNNY   64  47  54 SW17G25   29.99F
SAGINAW HB     CLOUDY    59  43  55 SW16G23   29.92F
$$
MIZ043>046-050>051-056>058-064>065-071>073-077>080-241800-
SOUTHWEST LOWER MICHIGAN

CITY           SKY/WX    TMP DP  RH WIND       PRES   REMARKS
BATTLE CREEK   CLOUDY    69  51  52 SW20G26   29.95F
BENTON HARBOR  MOSUNNY   73  47  39 SW29G39   29.93S
BIG RAPIDS     PTSUNNY   58  45  61 W13       29.90F
COLDWATER      CLOUDY    68  50  52 SW18G28   29.97F
FREMONT        FAIR      59  43  56 SW10      29.92S
HOLLAND        MOSUNNY   62  49  62 SW23G32   29.93F
GRAND RAPIDS   CLOUDY    60  48  64 W13G22    29.94S
IONIA          CLOUDY    60  47  61 CALM      29.94S
KALAMAZOO      CLOUDY    71  49  45 SW16G25   29.95F
LUDINGTON      CLOUDY    48  40  73 W8        29.93R
MARSHALL       CLOUDY    67  51  55 SW15G21   29.96S
MOUNT PLEASANT MOSUNNY   60  46  59 SW16G23   29.90F
MUSKEGON       CLOUDY    54  44  69 SW9       29.94S
SOUTH HAVEN    MOSUNNY   69  48  47 SW23G35   29.92S
$$
MIZ016>042-241800-
NORTHERN LOWER MICHIGAN

CITY           SKY/WX    TMP DP  RH WIND       PRES   REMARKS
ALPENA         CLOUDY    37  36  96 CALM      29.94F FOG
BEAVER ISLAND  MIX PCPN  35  35 100 NW5       29.98S WCI  31
BELLAIRE       CLOUDY    40  37  88 NW3       29.96R FOG
CADILLAC       CLOUDY    53  39  59 W5        29.90S
CHARLEVOIX     CLOUDY    37  37 100 NW6       29.99S FOG     WCI  32
FRANKFORT      CLOUDY    40  35  83 N7        29.96R
GAYLORD        CLOUDY    41  35  79 NW6       29.92S HAZE
GRAYLING       CLOUDY    46  37  71 W8        29.93F
HARBOR SPRINGS CLOUDY    37  37  99 CALM      29.96R FOG
HOUGHTON LAKE  CLOUDY    52  39  61 W5        29.91R
MANISTEE       CLOUDY    46  38  73 W9        29.94R
OSCODA         PTSUNNY   52  39  61 NW7       29.92S
PELLSTON       LGT RAIN  38  34  85 N5        29.96R FOG     WCI  34
ROGERS CITY    CLOUDY    36  34  91 W3          N/A  FOG
TRAVERSE CITY  CLOUDY    41  37  86 NE5       29.95R
$$
MIZ007>008-015-241800-
EASTERN UPPER MICHIGAN

CITY           SKY/WX    TMP DP  RH WIND       PRES   REMARKS
KINROSS        LGT SNOW  33  32  96 NW3       29.99R FOG
MACKINAC ISLAN MIX PCPN  32  32 100 N6        29.97R VSB 1/2 WCI  26
NEWBERRY       LGT SNOW  32  32  99 NW6       29.97S WCI  26
S. S. MARIE    LGT SNOW  34  32  92 NW3       29.99R VSB 3/4
MUNISING         N/A     35  33  92 NW8       30.01R WCI  29
$$
MIZ004>006-011>014-085-241800-
CENTRAL UPPER MICHIGAN

CITY           SKY/WX    TMP DP  RH WIND       PRES   REMARKS
MANISTIQUE     LGT SNOW  34  32  93 N6        29.99R WCI  29
ESCANABA       LGT RAIN  36  35  96 N6        30.00R FOG     WCI  31
MENOMINEE        N/A    N/A N/A N/A MISG        N/A
SAWYER-GWINN   CLOUDY    32  32 100 N5        29.99R FOG     WCI  27
$$
MIZ001>003-009>011-084-241800-
WESTERN UPPER MICHIGAN

CITY           SKY/WX    TMP DP  RH WIND       PRES   REMARKS
IRON MOUNTAIN  LGT RAIN  35  32  88 N8        29.98R FOG     WCI  29
HOUGHTON       CLOUDY    37  31  78 N8        30.01R WCI  31
COPPER HARBOR    N/A     37  33  85 NE8       30.02R WCI  31
IRONWOOD       CLOUDY    35  33  92 N7        30.05R FOG     WCI  29
$$

ABBREVIATIONS USED IN REMARKS
   TC - TEMPERATURE IN CELSIUS
  WCI - WIND CHILL INDEX
   HX - HEAT INDEX
  VSB - VISIBILITY





USA.gov is the U.S. government's official web portal to all federal, state and local government web resources and services.